Location: ????????
(54.8751°N, 38.5756°E)
Time: 11:58:37
(UTC+00:00)

NOSS 2-3 (D) - Pass Details

Date: 14 April 2024
Orbit: 497 x 1701 km, 63.3° (Epoch: 24 April)

Event Time Altitude Azimuth Distance (km) Brightness Sun altitude
Rises 00:22:07 0° 309° (NW) 3,114 7.1 -15.8°
Reaches altitude 10° 00:24:13 10° 306° (NW) 2,324 6.4 -15.6°
Maximum altitude 00:29:30 61° 227° (SW) 1,068 4.4 -15.1°
Drops below altitude 10° 00:36:41 10° 149° (SSE) 3,130 7.0 -14.3°
Sets 00:39:54 0° 147° (SSE) 4,286 7.8 -13.9°
